Total_Precipitation_Accumulation
0.01 0.02 0.03 0.05 0.07 0.11 0.17 0.21 0.33 0.37 0.25 0.29 0.46 0.66 0.88 1.03 1.18 1.23 1.37 1.36 1.56 1.82 1.98 2.38 2.75 3.22 3.67 4.18 4.93 5.64 6.22 6.30 6.15 5.76 5.38 5.14 4.68 4.37 4.11 3.85 3.66 3.42 3.14 3.01
0.02 0.04 0.04 0.05 0.06 0.07 0.14 0.22 0.35 0.36 0.25 0.30 0.49 0.74 1.02 1.09 1.05 1.06 1.27 1.35 1.42 1.62 1.92 2.29 2.84 3.15 3.52 4.04 4.59 5.03 5.12 4.89 4.81 4.84 4.73 4.48 4.48 4.31 4.23 4.05 3.89 3.40 3.19 3.07
0.04 0.06 0.04 0.05 0.07 0.08 0.12 0.20 0.27 0.30 0.31 0.39 0.56 0.95 1.23 1.23 1.04 0.95 0.99 1.09 1.20 1.33 1.54 1.90 2.49 2.82 3.02 3.51 3.84 3.87 3.82 3.76 3.91 3.97 3.91 3.95 4.21 4.27 4.30 4.20 3.97 3.57 3.35 3.20
0.03 0.04 0.05 0.06 0.09 0.08 0.13 0.13 0.16 0.19 0.30 0.59 0.67 1.16 1.49 1.59 1.40 1.11 0.99 1.10 1.16 1.24 1.30 1.61 1.95 2.21 2.49 2.77 2.88 2.86 2.95 3.08 3.22 3.32 3.34 3.19 3.23 3.51 3.75 3.95 4.03 3.90 3.60 3.34
0.04 0.05 0.06 0.07 0.08 0.10 0.10 0.09 0.12 0.19 0.29 0.48 0.61 0.91 1.42 1.76 1.77 1.36 1.09 1.00 0.96 1.09 1.33 1.54 1.66 1.85 1.96 2.03 2.14 2.17 2.46 2.88 3.08 3.22 3.35 3.24 2.91 2.94 3.01 3.15 3.32 3.31 3.28 3.11
0.05 0.06 0.06 0.06 0.07 0.09 0.10 0.16 0.25 0.37 0.53 0.82 0.75 0.83 1.29 1.55 1.65 1.30 1.07 0.97 0.86 0.86 1.04 1.26 1.56 1.67 1.65 1.62 1.76 1.95 2.26 2.77 3.07 3.19 3.14 3.12 3.04 3.03 2.95 2.92 2.99 2.86 2.84 2.77
0.16 0.14 0.10 0.07 0.08 0.10 0.11 0.21 0.60 1.03 1.36 1.41 0.86 0.83 1.07 1.10 1.04 1.04 0.90 0.85 0.89 0.82 0.81 0.82 1.02 1.29 1.27 1.24 1.41 1.67 1.87 2.28 2.59 2.77 2.72 2.67 2.80 2.90 2.75 2.59 2.53 2.46 2.33 2.26
0.19 0.23 0.14 0.10 0.09 0.10 0.11 0.16 0.44 0.77 0.96 1.10 0.94 1.27 1.37 1.02 0.85 0.76 0.64 0.63 0.72 0.67 0.61 0.60 0.66 0.84 1.06 1.09 1.17 1.29 1.53 1.82 2.08 2.25 2.37 2.48 2.65 2.75 2.66 2.80 2.54 2.39 2.10 1.94
0.08 0.11 0.10 0.10 0.10 0.12 0.13 0.13 0.19 0.31 0.46 0.78 1.08 1.29 1.25 1.05 0.97 0.78 0.60 0.54 0.55 0.54 0.53 0.53 0.59 0.79 0.86 0.88 0.95 1.07 1.28 1.48 1.69 1.94 2.15 2.23 2.23 2.23 2.38 2.53 2.47 2.31 2.22 1.98
0.05 0.06 0.08 0.10 0.11 0.13 0.13 0.14 0.16 0.24 0.42 0.63 0.97 1.36 1.44 1.33 1.15 0.96 0.84 0.64 0.53 0.56 0.58 0.55 0.56 0.64 0.70 0.75 0.86 1.07 1.26 1.27 1.50 1.88 2.15 2.10 2.14 2.07 2.23 2.23 2.19 2.21 2.13 2.08
0.04 0.05 0.07 0.11 0.14 0.17 0.17 0.15 0.15 0.20 0.24 0.40 0.82 1.12 1.06 1.10 1.03 0.96 0.83 0.71 0.67 0.65 0.63 0.60 0.60 0.60 0.71 0.64 0.72 0.90 1.04 1.19 1.48 1.81 2.11 2.21 2.13 2.12 2.18 2.03 1.98 2.08 2.08 2.06
0.05 0.05 0.08 0.13 0.19 0.19 0.18 0.17 0.18 0.24 0.24 0.27 0.45 0.76 0.64 0.73 0.85 0.87 0.70 0.62 0.61 0.53 0.51 0.48 0.47 0.53 0.51 0.50 0.61 0.93 1.26 1.60 1.78 2.07 2.42 2.54 2.31 2.10 1.97 1.79 1.77 1.91 2.08 2.13
0.05 0.06 0.14 0.32 0.35 0.25 0.19 0.16 0.17 0.18 0.19 0.23 0.45 0.71 0.59 0.64 0.75 0.75 0.70 0.63 0.62 0.64 0.53 0.51 0.46 0.54 0.53 0.51 0.53 0.68 0.86 1.22 1.57 1.93 2.30 2.34 2.08 1.84 1.79 1.77 1.78 1.89 2.06 2.08
0.06 0.05 0.10 0.27 0.34 0.33 0.27 0.21 0.19 0.16 0.18 0.23 0.32 0.60 0.62 0.65 0.62 0.65 0.63 0.60 0.69 0.79 0.66 0.59 0.56 0.55 0.55 0.55 0.53 0.64 0.76 0.84 1.07 1.54 1.88 1.86 1.70 1.64 1.65 1.67 1.70 1.70 1.78 1.83
0.07 0.07 0.05 0.07 0.16 0.23 0.25 0.23 0.19 0.16 0.15 0.26 0.30 0.41 0.52 0.69 0.67 0.68 0.66 0.60 0.58 0.69 0.66 0.61 0.60 0.68 0.70 0.74 0.74 0.75 0.79 0.83 1.02 1.50 1.74 1.69 1.61 1.63 1.57 1.53 1.64 1.71 1.76 1.79
0.10 0.10 0.10 0.11 0.14 0.16 0.17 0.20 0.18 0.13 0.12 0.11 0.17 0.33 0.39 0.62 0.78 0.77 0.78 0.74 0.69 0.69 0.65 0.62 0.55 0.64 0.75 0.82 0.83 0.84 0.92 0.98 1.11 1.43 1.67 1.64 1.56 1.53 1.43 1.48 1.60 1.72 1.81 1.99
0.16 0.15 0.15 0.16 0.19 0.18 0.25 0.21 0.17 0.15 0.15 0.15 0.25 0.38 0.38 0.46 0.64 0.77 0.79 0.76 0.68 0.70 0.62 0.62 0.66 0.74 0.94 0.89 0.90 0.96 0.91 0.98 1.16 1.47 1.68 1.70 1.62 1.58 1.52 1.48 1.65 1.81 2.01 2.20
0.29 0.27 0.25 0.22 0.26 0.37 0.29 0.21 0.22 0.25 0.28 0.29 0.33 0.37 0.40 0.52 0.61 0.75 0.93 0.79 0.65 0.68 0.70 0.78 0.76 0.81 0.91 0.90 0.94 1.00 1.02 1.06 1.20 1.44 1.67 1.75 1.70 1.72 1.80 1.82 1.88 2.05 2.28 2.44
0.34 0.39 0.36 0.31 0.35 0.41 0.38 0.31 0.35 0.39 0.45 0.47 0.49 0.43 0.49 0.55 0.68 0.84 0.79 0.77 0.82 0.83 0.82 0.87 0.96 1.00 1.08 1.07 1.02 1.05 1.20 1.24 1.32 1.40 1.63 1.77 1.82 1.90 1.92 1.99 2.24 2.41 2.56 2.59
0.37 0.46 0.50 0.45 0.52 0.59 0.59 0.44 0.38 0.46 0.79 0.62 0.64 0.63 0.56 0.60 0.87 1.01 0.85 0.77 0.77 0.88 0.98 0.98 1.05 1.10 1.12 1.16 1.22 1.25 1.36 1.53 1.66 1.74 1.83 2.06 2.27 2.44 2.51 2.58 2.63 2.69 2.77 2.72
0.66 0.63 0.61 0.66 0.78 0.72 0.57 0.51 0.46 0.87 1.20 0.89 0.85 0.83 0.73 0.85 0.96 0.97 0.84 0.79 0.75 0.79 0.93 1.02 1.05 1.14 1.22 1.23 1.37 1.62 1.73 1.83 2.00 2.16 2.22 2.43 2.76 2.95 2.93 2.99 2.88 2.77 2.77 2.78
0.89 0.85 0.84 0.90 1.13 1.20 0.67 0.62 0.97 1.22 1.02 1.04 1.06 1.03 0.96 0.94 0.99 1.01 0.99 0.84 0.79 0.80 0.87 0.99 1.07 1.15 1.33 1.58 1.77 2.04 2.18 2.21 2.30 2.45 2.64 2.89 3.14 3.00 2.92 3.07 2.96 2.94 3.00 2.98
0.96 1.01 1.09 1.17 1.39 1.18 0.83 0.95 1.12 1.11 1.08 1.12 1.09 1.05 0.95 0.91 1.06 1.02 0.95 0.91 0.80 0.80 0.86 0.96 1.05 1.22 1.43 1.73 2.11 2.36 2.42 2.54 2.57 2.64 2.80 2.92 3.00 3.13 3.26 3.31 3.17 3.07 3.05 2.99
1.16 1.04 1.23 1.45 1.52 1.27 1.12 1.11 1.07 1.10 1.12 1.08 1.01 0.96 0.97 0.95 0.96 0.96 0.90 0.88 0.84 0.86 0.95 0.99 1.10 1.30 1.59 1.89 2.24 2.39 2.43 2.45 2.46 2.50 2.52 2.62 2.77 2.90 3.02 3.26 3.29 3.16 2.99 2.88
1.38 1.28 1.51 1.90 1.96 1.80 1.66 1.42 1.25 1.21 1.17 1.21 1.17 1.08 1.04 1.01 0.96 0.90 0.89 0.89 0.89 0.90 1.03 1.13 1.24 1.34 1.49 1.75 2.02 2.13 2.28 2.36 2.50 2.54 2.47 2.42 2.44 2.58 2.72 2.83 2.92 2.86 2.81 2.63
1.55 1.59 1.86 2.23 1.95 1.90 2.03 1.76 1.51 1.43 1.43 1.46 1.44 1.39 1.27 1.18 1.11 1.03 0.97 0.91 0.89 0.89 1.00 1.13 1.27 1.43 1.58 1.75 1.93 2.02 2.19 2.32 2.43 2.44 2.33 2.31 2.29 2.36 2.41 2.41 2.37 2.24 2.15 1.99